STARLINK-32807, 62845

Orbit data source: Space-Track

STARLINK-32807, 62845 is a payload satellite owned by SpaceX/Seattle (US) in LEO that was launched on Mon, 27 Jan 2025 UTC via an FALCON 9 launch vehicle from the Air Force Eastern Test Range (AFETR). Payload-class satellites include a variety of spacecraft equipped with specific instruments for various scientific and technological missions. These include communications satellites like Starlink; space stations such as the ISS; scientific satellites like the Hubble; Earth observation satellites from companies like Planet Labs, Umbra, and HawkEye 360; GPS; miniature CubeSats for education and research; and military/defense satellites.

Loading next visibility...
Identifier
62845, 2025-019S
Orbit
LEO
Last TLE update
20 hours ago
Origin
Manufacturer
SpaceX/Seattle
Mission
Operational Commercial Communications
Bus & Motor
STARLINK V2M, Unknown motor
Mass
730 kg wet, ~700 kg dry
Launch date (UTC)
2025-01-27 (3 months ago)
Launch vehicle
FALCON 9
Launch site
Air Force Eastern Test Range (AFETR)
Object type
Payload
Rocket body
Debris
Shape & HBR
Box + 2 Pan, 29 m
Radar Cross Section
33.884 m², Large (>1 m²)

Expand to show TLE details & history

TLE from 20 hours ago
0 STARLINK-32807
1 62845U 25019S   25128.38752425  .00000803  00000-0  26499-4 0  9991
2 62845  43.0011   9.3022 0002634 323.2030  36.8645 15.40700531 16577
Epoch: 2025-05-08T09:18Z
Definitive object data (Epoch: 2025-05-08T09:18:02.095Z)
Latitude
-0.00004°
Longitude
3.33469°
Altitude
442.378 km
Speed
7.649 km/s
True Right ascension
00h 37m 12s
True Declination
0° 00' 00"
Sunlit
Object was in daylight at TLE epoch
Visualization TLE readout
Latitude
-14.08007°
Longitude
-17.01454°
Altitude
444.92 km
Speed
7.647 km/s
Apparent Right ascension
00h 14m 38s
Apparent Declination
-27° 28' 09"
Sunlit
Object is in daylight
Visualization observer readout
Local Sidereal Time
13:34:54
Azimuth
59.268° ENE
Elevation
-69.259°
Doppler factor
1
Orbital elements
Apogee altitude
447.794 km
Perigee altitude
444.199 km
Semi-major axis
6,824.134 km
Eccentricity
0.0002634
Inclination
43.0011°
RAAN
9.3022°
Arg. of periapsis
323.203°
True anomaly
36.88261°
Mean anomaly
36.8645°
Eccentric anomaly
36.87356°
Mean motion
3.8501 °/min
BSTAR
0.000026499
Orbital period
93.5 mins
Loading maneuver chart data...
Loading SW <> Apogee altitude chart data...
Loading historical data...
Loading historical data...
Loading historical data...
Loading historical data...
Loading historical data...
Loading historical data...
Loading historical data...

STARLINK-32807 Visibility forecast

Observer location: undefined°, undefined°

Span
Click to sort rows by Start time (UTC) header in descending order
Start Az.
Max El. time (UTC)
Max El. Az.
Max El.
End time (UTC)
End Az.
5 mins2025-05-09 19:47:14.298Z238.708° WSW2025-05-09 19:49:14.298Z132.084° SE43.434°2025-05-09 19:52:14.298Z74.387° E
5 mins2025-05-09 21:25:14.298Z287.066° WNW2025-05-09 21:27:14.298Z353.183° N37.702°2025-05-09 21:30:14.298Z71.023° E
5 mins2025-05-09 23:03:14.298Z292.983° NW2025-05-09 23:05:14.298Z333.045° NNW41.391°2025-05-09 23:08:14.298Z95.271° ESE
4 mins2025-05-10 00:42:14.298Z251.853° W2025-05-10 00:43:14.298Z221.391° SW28.475°2025-05-10 00:46:14.298Z147.845° SSE
|